| time (UTC) | temp F | wind direction | speed MPH | gust MPH | rain 1hr in | rain 24hr in | rain mn in | humidity % | barometer mb |
| 20260510083025 | 72 | 142 | 1.0 | 3.0 | 0.00 | 0.00 | 0.00 | 92 | 1008.4 |
| 20260510082514 | 72 | 142 | 1.0 | 3.0 | 0.00 | 0.00 | 0.00 | 92 | 1008.4 |
| 20260510082014 | 72 | 142 | 1.0 | 2.0 | 0.00 | 0.00 | 0.00 | 92 | 1008.4 |
| 20260510081504 | 72 | 142 | 1.0 | 2.0 | 0.00 | 0.00 | 0.00 | 92 | 1008.3 |
| 20260510080954 | 72 | 142 | 1.0 | 2.0 | 0.00 | 0.00 | 0.00 | 92 | 1008.5 |
| 20260510080453 | 72 | 142 | 1.0 | 2.0 | 0.00 | 0.00 | 0.00 | 91 | 1008.4 |
| 20260510075951 | 72 | 142 | 1.0 | 2.0 | 0.00 | 0.00 | 0.00 | 91 | 1008.4 |
| 20260510075947 | 72 | 142 | 1.0 | 2.0 | 0.00 | 0.00 | 0.00 | 91 | 1008.4 |
| 20260510074947 | 72 | 142 | 1.0 | 2.0 | 0.00 | 0.00 | 0.00 | 91 | 1008.4 |
| 20260510074439 | 72 | 142 | 0.0 | 1.0 | 0.00 | 0.00 | 0.00 | 90 | 1008.4 |
| 20260510073940 | 72 | 142 | 0.0 | 1.0 | 0.00 | 0.00 | 0.00 | 90 | 1008.5 |
| 20260510073917 | 73 | 142 | 0.0 | 2.0 | 0.00 | 0.00 | 0.00 | 90 | 1008.7 |
| 20260510073411 | 73 | 141 | 0.0 | 2.0 | 0.00 | 0.00 | 0.00 | 90 | 1008.7 |
| 20260510072408 | 73 | 142 | 1.0 | 3.0 | 0.00 | 0.00 | 0.00 | 90 | 1008.6 |
| 20260510071908 | 73 | 141 | 1.0 | 3.0 | 0.00 | 0.00 | 0.00 | 89 | 1008.8 |
| 20260510071406 | 73 | 141 | 1.0 | 3.0 | 0.00 | 0.00 | 0.00 | 89 | 1008.8 |
| 20260510070908 | 74 | 141 | 2.0 | 4.0 | 0.00 | 0.00 | 0.00 | 89 | 1008.9 |
| 20260510070405 | 74 | 141 | 2.0 | 5.0 | 0.00 | 0.00 | 0.00 | 89 | 1008.8 |
| 20260510065903 | 74 | 141 | 2.0 | 5.0 | 0.00 | 0.00 | 0.00 | 89 | 1008.9 |
| 20260510065403 | 74 | 142 | 2.0 | 4.0 | 0.00 | 0.00 | 0.00 | 89 | 1008.7 |
| 20260510064904 | 74 | 142 | 1.0 | 4.0 | 0.00 | 0.00 | 0.00 | 89 | 1008.8 |
| 20260510064357 | 74 | 144 | 1.0 | 4.0 | 0.00 | 0.00 | 0.00 | 89 | 1008.8 |
| 20260510063842 | 74 | 144 | 1.0 | 4.0 | 0.00 | 0.00 | 0.00 | 90 | 1008.9 |
| 20260510063343 | 74 | 144 | 1.0 | 4.0 | 0.00 | 0.00 | 0.00 | 90 | 1008.8 |
| 20260510062844 | 74 | 145 | 1.0 | 4.0 | 0.00 | 0.00 | 0.00 | 90 | 1008.9 |
| 20260510062342 | 73 | 145 | 1.0 | 4.0 | 0.00 | 0.00 | 0.00 | 89 | 1008.8 |
| 20260510061840 | 74 | 145 | 2.0 | 4.0 | 0.00 | 0.00 | 0.00 | 89 | 1008.9 |
| 20260510061340 | 74 | 145 | 2.0 | 4.0 | 0.00 | 0.00 | 0.00 | 89 | 1008.9 |
| 20260510060839 | 74 | 146 | 2.0 | 4.0 | 0.00 | 0.00 | 0.00 | 88 | 1008.9 |
| 20260510060340 | 74 | 146 | 2.0 | 5.0 | 0.00 | 0.00 | 0.00 | 88 | 1008.9 |
| 20260510055834 | 74 | 146 | 2.0 | 5.0 | 0.00 | 0.00 | 0.00 | 88 | 1008.9 |
| 20260510055829 | 74 | 149 | 1.0 | 4.0 | 0.00 | 0.00 | 0.00 | 88 | 1008.9 |
| 20260510054828 | 74 | 149 | 1.0 | 4.0 | 0.00 | 0.00 | 0.00 | 87 | 1008.8 |
| 20260510054327 | 74 | 150 | 1.0 | 4.0 | 0.00 | 0.00 | 0.00 | 87 | 1008.8 |
| 20260510053825 | 75 | 150 | 1.0 | 4.0 | 0.00 | 0.00 | 0.00 | 87 | 1008.9 |
| 20260510053324 | 75 | 153 | 1.0 | 2.0 | 0.00 | 0.00 | 0.00 | 87 | 1008.8 |
| 20260510052811 | 75 | 153 | 1.0 | 3.0 | 0.00 | 0.00 | 0.00 | 86 | 1008.8 |
| 20260510052306 | 75 | 153 | 0.0 | 3.0 | 0.00 | 0.00 | 0.00 | 86 | 1008.8 |
| 20260510051803 | 76 | 153 | 1.0 | 4.0 | 0.00 | 0.00 | 0.00 | 86 | 1008.7 |
| 20260510051756 | 76 | 153 | 1.0 | 4.0 | 0.00 | 0.00 | 0.00 | 86 | 1008.6 |
| 20260510050754 | 76 | 153 | 1.0 | 4.0 | 0.00 | 0.00 | 0.00 | 85 | 1008.5 |
| 20260510050256 | 76 | 153 | 1.0 | 4.0 | 0.00 | 0.00 | 0.00 | 85 | 1008.5 |
| 20260510045748 | 76 | 153 | 1.0 | 3.0 | 0.00 | 0.00 | 0.00 | 85 | 1008.4 |
| 20260510045239 | 76 | 153 | 2.0 | 6.0 | 0.00 | 0.00 | 0.00 | 84 | 1008.3 |
| 20260510044745 | 76 | 159 | 2.0 | 5.0 | 0.00 | 0.00 | 0.00 | 84 | 1008.2 |
| 20260510044739 | 76 | 153 | 2.0 | 6.0 | 0.00 | 0.00 | 0.00 | 84 | 1007.9 |
| 20260510044352 | 76 | 157 | 1.0 | 4.0 | 0.00 | 0.00 | 0.00 | 85 | 1008.2 |
| 20260510043234 | 76 | 157 | 0.0 | 2.0 | 0.00 | 0.00 | 0.00 | 84 | 1008.4 |
| 20260510043229 | 76 | 157 | 0.0 | 2.0 | 0.00 | 0.00 | 0.00 | 85 | 1008.1 |
| 20260510042210 | 76 | 157 | 0.0 | 2.0 | 0.00 | 0.00 | 0.00 | 84 | 1008.4 |
| 20260510041708 | 76 | 157 | 1.0 | 2.0 | 0.00 | 0.00 | 0.00 | 84 | 1008.3 |
| 20260510041200 | 76 | 157 | 1.0 | 3.0 | 0.00 | 0.00 | 0.00 | 83 | 1008.3 |
| 20260510041156 | 76 | 157 | 1.0 | 3.0 | 0.00 | 0.00 | 0.00 | 83 | 1008.3 |
| 20260510040146 | 77 | 157 | 0.0 | 3.0 | 0.00 | 0.00 | 0.00 | 83 | 1008.0 |
| 20260510040140 | 77 | 157 | 0.0 | 3.0 | 0.00 | 0.00 | 0.00 | 82 | 1008.1 |
| 20260510035129 | 77 | 157 | 0.0 | 2.0 | 0.00 | 0.00 | 0.00 | 82 | 1008.2 |
| 20260510034622 | 77 | 157 | 0.0 | 2.0 | 0.00 | 0.00 | 0.00 | 82 | 1008.0 |
| 20260510034122 | 77 | 157 | 0.0 | 1.0 | 0.00 | 0.00 | 0.00 | 81 | 1008.1 |
| 20260510033617 | 77 | 157 | 0.0 | 1.0 | 0.00 | 0.00 | 0.00 | 81 | 1007.9 |
| 20260510033123 | 78 | 157 | 0.0 | 3.0 | 0.00 | 0.00 | 0.00 | 81 | 1008.0 |
| 20260510033108 | 78 | 157 | 0.0 | 3.0 | 0.00 | 0.00 | 0.00 | 81 | 1007.9 |
| 20260510032105 | 78 | 157 | 1.0 | 3.0 | 0.00 | 0.00 | 0.00 | 81 | 1007.8 |
| 20260510031604 | 78 | 157 | 0.0 | 3.0 | 0.00 | 0.00 | 0.00 | 80 | 1007.8 |
| 20260510031104 | 78 | 157 | 0.0 | 3.0 | 0.00 | 0.00 | 0.00 | 79 | 1007.7 |
| 20260510030601 | 78 | 157 | 0.0 | 3.0 | 0.00 | 0.00 | 0.00 | 79 | 1007.6 |
| 20260510030106 | 79 | 157 | 1.0 | 3.0 | 0.00 | 0.00 | 0.00 | 78 | 1007.5 |
| 20260510025059 | 80 | 157 | 2.0 | 4.0 | 0.00 | 0.00 | 0.00 | 78 | 1007.4 |
| 20260510024558 | 80 | 157 | 1.0 | 4.0 | 0.00 | 0.00 | 0.00 | 77 | 1007.4 |
| 20260510024101 | 80 | 160 | 1.0 | 3.0 | 0.00 | 0.00 | 0.00 | 76 | 1006.8 |
| 20260510024057 | 80 | 160 | 1.0 | 3.0 | 0.00 | 0.00 | 0.00 | 76 | 1007.1 |
| 20260510023058 | 80 | 160 | 1.0 | 3.0 | 0.00 | 0.00 | 0.00 | 76 | 1006.7 |
| 20260510022601 | 80 | 160 | 1.0 | 3.0 | 0.00 | 0.00 | 0.00 | 76 | 1006.5 |
| 20260510022556 | 81 | 160 | 1.0 | 6.0 | 0.00 | 0.00 | 0.00 | 76 | 1006.4 |
| 20260510021538 | 81 | 160 | 2.0 | 6.0 | 0.00 | 0.00 | 0.00 | 75 | 1006.4 |
| 20260510021037 | 81 | 155 | 1.0 | 4.0 | 0.00 | 0.00 | 0.00 | 75 | 1006.2 |
| 20260510020536 | 81 | 159 | 1.0 | 4.0 | 0.00 | 0.00 | 0.00 | 75 | 1006.2 |
| 20260510020034 | 81 | 159 | 2.0 | 6.0 | 0.00 | 0.00 | 0.00 | 75 | 1006.3 |
| 20260510015531 | 81 | 153 | 2.0 | 7.0 | 0.00 | 0.00 | 0.00 | 75 | 1006.0 |
| 20260510015030 | 82 | 127 | 3.0 | 10.0 | 0.00 | 0.00 | 0.00 | 74 | 1006.1 |
| 20260510014526 | 82 | 185 | 3.0 | 10.0 | 0.00 | 0.00 | 0.00 | 74 | 1006.0 |
| 20260510014025 | 82 | 186 | 3.0 | 10.0 | 0.00 | 0.00 | 0.00 | 73 | 1005.8 |
| 20260510013521 | 82 | 142 | 3.0 | 9.0 | 0.00 | 0.00 | 0.00 | 74 | 1006.0 |
| 20260510013021 | 82 | 193 | 3.0 | 8.0 | 0.00 | 0.00 | 0.00 | 74 | 1005.9 |
| 20260510012521 | 83 | 202 | 3.0 | 8.0 | 0.00 | 0.00 | 0.00 | 75 | 1005.8 |
| 20260510012022 | 83 | 184 | 2.0 | 7.0 | 0.00 | 0.00 | 0.00 | 74 | 1006.2 |
| 20260510011523 | 83 | 200 | 2.0 | 10.0 | 0.00 | 0.00 | 0.00 | 74 | 1006.2 |
| 20260510011023 | 84 | 128 | 3.0 | 10.0 | 0.00 | 0.00 | 0.00 | 73 | 1006.2 |
| 20260510011018 | 83 | 178 | 3.0 | 10.0 | 0.00 | 0.00 | 0.00 | 74 | 1006.1 |
| 20260510010014 | 84 | 175 | 3.0 | 10.0 | 0.00 | 0.00 | 0.00 | 73 | 1006.2 |
| 20260510005509 | 84 | 159 | 3.0 | 10.0 | 0.00 | 0.00 | 0.00 | 73 | 1006.2 |
| 20260510005011 | 85 | 158 | 3.0 | 6.0 | 0.00 | 0.00 | 0.00 | 72 | 1006.3 |
| 20260510004503 | 85 | 150 | 3.0 | 8.0 | 0.00 | 0.00 | 0.00 | 72 | 1006.3 |
| 20260510004000 | 85 | 143 | 3.0 | 9.0 | 0.00 | 0.00 | 0.00 | 72 | 1006.3 |
| 20260510003459 | 86 | 169 | 3.0 | 9.0 | 0.00 | 0.00 | 0.00 | 72 | 1006.1 |
| 20260510003001 | 86 | 153 | 3.0 | 9.0 | 0.00 | 0.00 | 0.00 | 71 | 1006.0 |
| 20260510002459 | 87 | 214 | 4.0 | 11.0 | 0.00 | 0.00 | 0.00 | 71 | 1006.0 |
| 20260510002000 | 87 | 148 | 4.0 | 11.0 | 0.00 | 0.00 | 0.00 | 69 | 1005.8 |
| 20260510001457 | 89 | 162 | 3.0 | 10.0 | 0.00 | 0.00 | 0.00 | 67 | 1005.8 |
| 20260510000957 | 90 | 119 | 2.0 | 7.0 | 0.00 | 0.00 | 0.00 | 64 | 1005.7 |
| 20260510000441 | 90 | 136 | 2.0 | 5.0 | 0.00 | 0.00 | 0.00 | 64 | 1005.4 |
| 20260509235942 | 90 | 138 | 2.0 | 5.0 | 0.00 | 0.00 | 0.00 | 64 | 1005.4 |
| 20260509235444 | 90 | 123 | 2.0 | 5.0 | 0.00 | 0.00 | 0.00 | 62 | 1005.3 |
| 20260509235438 | 90 | 130 | 2.0 | 5.0 | 0.00 | 0.00 | 0.00 | 64 | 1005.3 |
| 20260509234938 | 90 | 124 | 2.0 | 5.0 | 0.00 | 0.00 | 0.00 | 63 | 1005.3 |
| 20260509234432 | 90 | 123 | 2.0 | 5.0 | 0.00 | 0.00 | 0.00 | 62 | 1005.3 |
| 20260509233429 | 90 | 123 | 2.0 | 9.0 | 0.00 | 0.00 | 0.00 | 62 | 1005.3 |
| 20260509232923 | 90 | 125 | 2.0 | 9.0 | 0.00 | 0.00 | 0.00 | 62 | 1005.2 |
| 20260509232424 | 91 | 133 | 2.0 | 7.0 | 0.00 | 0.00 | 0.00 | 61 | 1005.3 |
| 20260509232420 | 90 | 132 | 2.0 | 7.0 | 0.00 | 0.00 | 0.00 | 62 | 1005.2 |
| 20260509231420 | 91 | 133 | 2.0 | 6.0 | 0.00 | 0.00 | 0.00 | 62 | 1005.2 |
| 20260509230921 | 91 | 131 | 2.0 | 6.0 | 0.00 | 0.00 | 0.00 | 61 | 1005.3 |
| 20260509230421 | 91 | 149 | 2.0 | 5.0 | 0.00 | 0.00 | 0.00 | 61 | 1005.3 |
| 20260509230406 | 91 | 141 | 2.0 | 5.0 | 0.00 | 0.00 | 0.00 | 60 | 1005.3 |
| 20260509230024 | 91 | 56 | 1.0 | 5.0 | 0.00 | 0.00 | 0.00 | 59 | 1005.3 |
| 20260509224903 | 91 | 32 | 0.0 | 2.0 | 0.00 | 0.00 | 0.00 | 59 | 1005.3 |
| 20260509224858 | 91 | 33 | 0.0 | 3.0 | 0.00 | 0.00 | 0.00 | 59 | 1005.2 |
| 20260509223854 | 91 | 32 | 0.0 | 2.0 | 0.00 | 0.00 | 0.00 | 59 | 1005.3 |
| 20260509223350 | 92 | 32 | 0.0 | 2.0 | 0.00 | 0.00 | 0.00 | 59 | 1005.4 |
| 20260509222856 | 92 | 32 | 1.0 | 3.0 | 0.00 | 0.00 | 0.00 | 59 | 1005.3 |
| 20260509222850 | 92 | 32 | 0.0 | 2.0 | 0.00 | 0.00 | 0.00 | 58 | 1005.5 |
| 20260509221848 | 92 | 32 | 1.0 | 3.0 | 0.00 | 0.00 | 0.00 | 58 | 1005.3 |
| 20260509221833 | 92 | 32 | 1.0 | 4.0 | 0.00 | 0.00 | 0.00 | 57 | 1005.4 |
| 20260509220830 | 92 | 32 | 1.0 | 5.0 | 0.00 | 0.00 | 0.00 | 58 | 1005.3 |
| 20260509220330 | 92 | 34 | 1.0 | 5.0 | 0.00 | 0.00 | 0.00 | 57 | 1005.3 |
| 20260509215828 | 92 | 30 | 2.0 | 5.0 | 0.00 | 0.00 | 0.00 | 58 | 1005.4 |
| 20260509215321 | 92 | 22 | 2.0 | 5.0 | 0.00 | 0.00 | 0.00 | 57 | 1005.3 |
| 20260509214802 | 92 | 19 | 1.0 | 4.0 | 0.00 | 0.00 | 0.00 | 59 | 1005.4 |
| 20260509214302 | 91 | 19 | 2.0 | 10.0 | 0.00 | 0.00 | 0.00 | 59 | 1005.4 |
| 20260509213803 | 92 | 18 | 2.0 | 10.0 | 0.00 | 0.00 | 0.00 | 58 | 1005.3 |
| 20260509213300 | 92 | 243 | 1.0 | 5.0 | 0.00 | 0.00 | 0.00 | 58 | 1005.4 |
| 20260509212756 | 93 | 243 | 1.0 | 6.0 | 0.00 | 0.00 | 0.00 | 56 | 1005.3 |
| 20260509212253 | 94 | 224 | 1.0 | 6.0 | 0.00 | 0.00 | 0.00 | 55 | 1005.3 |
| 20260509211748 | 94 | 249 | 1.0 | 5.0 | 0.00 | 0.00 | 0.00 | 57 | 1005.5 |
| 20260509211239 | 94 | 250 | 1.0 | 5.0 | 0.00 | 0.00 | 0.00 | 55 | 1005.3 |
| 20260509210740 | 94 | 291 | 1.0 | 5.0 | 0.00 | 0.00 | 0.00 | 56 | 1005.4 |
| 20260509210236 | 94 | 292 | 1.0 | 5.0 | 0.00 | 0.00 | 0.00 | 58 | 1005.4 |
| 20260509205730 | 94 | 311 | 1.0 | 5.0 | 0.00 | 0.00 | 0.00 | 55 | 1005.5 |
| 20260509205707 | 93 | 355 | 1.0 | 5.0 | 0.00 | 0.00 | 0.00 | 58 | 1005.6 |
| 20260509204705 | 93 | 94 | 0.0 | 2.0 | 0.00 | 0.00 | 0.00 | 59 | 1005.8 |
| 20260509204204 | 92 | 94 | 0.0 | 4.0 | 0.00 | 0.00 | 0.00 | 60 | 1005.7 |
| 20260509204155 | 91 | 94 | 1.0 | 4.0 | 0.00 | 0.00 | 0.00 | 60 | 1005.8 |
| 20260509203151 | 91 | 95 | 0.0 | 2.0 | 0.00 | 0.00 | 0.00 | 63 | 1005.9 |
| 20260509203145 | 92 | 95 | 0.0 | 4.0 | 0.00 | 0.00 | 0.00 | 58 | 1005.9 |
| 20260509202140 | 91 | 95 | 0.0 | 3.0 | 0.00 | 0.00 | 0.00 | 60 | 1006.0 |
| 20260509202133 | 92 | 95 | 0.0 | 3.0 | 0.00 | 0.00 | 0.00 | 60 | 1006.0 |
| 20260509201603 | 92 | 95 | 1.0 | 3.0 | 0.00 | 0.00 | 0.00 | 60 | 1006.2 |
| 20260509201209 | 92 | 95 | 0.0 | 3.0 | 0.00 | 0.00 | 0.00 | 60 | 1006.0 |
| 20260509200103 | 92 | 96 | 0.0 | 3.0 | 0.00 | 0.00 | 0.00 | 62 | 1006.1 |
| 20260509195556 | 91 | 96 | 1.0 | 5.0 | 0.00 | 0.00 | 0.00 | 64 | 1006.1 |
| 20260509195050 | 91 | 96 | 1.0 | 5.0 | 0.00 | 0.00 | 0.00 | 61 | 1006.3 |
| 20260509194630 | 91 | 184 | 1.0 | 5.0 | 0.00 | 0.00 | 0.00 | 65 | 1006.5 |
| 20260509194538 | 92 | 184 | 1.0 | 2.0 | 0.00 | 0.00 | 0.00 | 59 | 1006.4 |
| 20260509194515 | 92 | 184 | 1.0 | 3.0 | 0.00 | 0.00 | 0.00 | 63 | 1006.4 |
| 20260509193505 | 91 | 182 | 1.0 | 5.0 | 0.00 | 0.00 | 0.00 | 62 | 1006.5 |
| 20260509193120 | 91 | 187 | 0.0 | 3.0 | 0.00 | 0.00 | 0.00 | 62 | 1006.5 |
| 20260509192003 | 91 | 187 | 0.0 | 2.0 | 0.00 | 0.00 | 0.00 | 60 | 1006.5 |
| 20260509191450 | 91 | 187 | 1.0 | 5.0 | 0.00 | 0.00 | 0.00 | 62 | 1006.6 |
| 20260509190947 | 91 | 187 | 1.0 | 8.0 | 0.00 | 0.00 | 0.00 | 62 | 1006.7 |
| 20260509190444 | 91 | 186 | 2.0 | 8.0 | 0.00 | 0.00 | 0.00 | 61 | 1006.8 |
| 20260509185942 | 90 | 141 | 2.0 | 7.0 | 0.00 | 0.00 | 0.00 | 64 | 1006.8 |
| 20260509185421 | 90 | 129 | 1.0 | 4.0 | 0.00 | 0.00 | 0.00 | 64 | 1007.0 |
| 20260509184918 | 90 | 129 | 1.0 | 4.0 | 0.00 | 0.00 | 0.00 | 62 | 1006.8 |
| 20260509184414 | 90 | 128 | 1.0 | 4.0 | 0.00 | 0.00 | 0.00 | 62 | 1006.9 |
| 20260509183907 | 90 | 104 | 1.0 | 4.0 | 0.00 | 0.00 | 0.00 | 63 | 1007.0 |
| 20260509183405 | 90 | 103 | 1.0 | 5.0 | 0.00 | 0.00 | 0.00 | 63 | 1007.1 |
| 20260509182859 | 89 | 102 | 2.0 | 5.0 | 0.00 | 0.00 | 0.00 | 64 | 1007.1 |
| 20260509182359 | 89 | 104 | 2.0 | 5.0 | 0.00 | 0.00 | 0.00 | 64 | 1007.2 |
| 20260509181857 | 88 | 102 | 1.0 | 5.0 | 0.00 | 0.00 | 0.00 | 64 | 1007.3 |
| 20260509181354 | 88 | 104 | 1.0 | 4.0 | 0.00 | 0.00 | 0.00 | 64 | 1007.4 |
| 20260509180856 | 88 | 105 | 1.0 | 4.0 | 0.00 | 0.00 | 0.00 | 65 | 1007.6 |
| 20260509180356 | 88 | 105 | 1.0 | 3.0 | 0.00 | 0.00 | 0.00 | 67 | 1007.5 |
| 20260509175856 | 88 | 106 | 1.0 | 3.0 | 0.00 | 0.00 | 0.00 | 66 | 1007.7 |
| 20260509175351 | 88 | 105 | 1.0 | 5.0 | 0.00 | 0.00 | 0.00 | 67 | 1007.8 |
| 20260509174850 | 87 | 105 | 1.0 | 5.0 | 0.00 | 0.00 | 0.00 | 64 | 1007.8 |
| 20260509174348 | 87 | 249 | 0.0 | 4.0 | 0.00 | 0.00 | 0.00 | 65 | 1008.0 |
| 20260509173842 | 87 | 249 | 0.0 | 4.0 | 0.00 | 0.00 | 0.00 | 66 | 1008.1 |
| 20260509173343 | 87 | 248 | 1.0 | 4.0 | 0.00 | 0.00 | 0.00 | 67 | 1008.1 |
| 20260509173339 | 87 | 248 | 1.0 | 3.0 | 0.00 | 0.00 | 0.00 | 68 | 1008.0 |
| 20260509172336 | 86 | 254 | 1.0 | 2.0 | 0.00 | 0.00 | 0.00 | 68 | 1008.0 |
| 20260509172330 | 87 | 254 | 1.0 | 4.0 | 0.00 | 0.00 | 0.00 | 67 | 1008.2 |
| 20260509171326 | 86 | 254 | 1.0 | 3.0 | 0.00 | 0.00 | 0.00 | 71 | 1008.2 |
| 20260509170831 | 86 | 254 | 0.0 | 3.0 | 0.00 | 0.00 | 0.00 | 72 | 1008.0 |
| 20260509170826 | 86 | 254 | 1.0 | 3.0 | 0.00 | 0.00 | 0.00 | 73 | 1008.2 |
| 20260509165824 | 85 | 254 | 1.0 | 4.0 | 0.00 | 0.00 | 0.00 | 71 | 1008.0 |
| 20260509165308 | 85 | 254 | 1.0 | 5.0 | 0.00 | 0.00 | 0.00 | 72 | 1008.1 |
| 20260509164811 | 85 | 253 | 1.0 | 5.0 | 0.00 | 0.00 | 0.00 | 71 | 1008.0 |
| 20260509164806 | 85 | 230 | 0.0 | 3.0 | 0.00 | 0.00 | 0.00 | 74 | 1008.2 |
| 20260509163805 | 85 | 229 | 1.0 | 2.0 | 0.00 | 0.00 | 0.00 | 74 | 1008.1 |
| 20260509163305 | 84 | 229 | 1.0 | 2.0 | 0.00 | 0.00 | 0.00 | 74 | 1007.9 |
| 20260509162801 | 84 | 229 | 1.0 | 2.0 | 0.00 | 0.00 | 0.00 | 75 | 1007.8 |
| 20260509162306 | 84 | 229 | 1.0 | 4.0 | 0.00 | 0.00 | 0.00 | 74 | 1007.5 |
| 20260509161802 | 84 | 229 | 1.0 | 5.0 | 0.00 | 0.00 | 0.00 | 74 | 1007.2 |
| 20260509161254 | 84 | 231 | 1.0 | 5.0 | 0.00 | 0.00 | 0.00 | 75 | 1007.3 |
| 20260509160744 | 84 | 235 | 1.0 | 4.0 | 0.00 | 0.00 | 0.00 | 77 | 1007.4 |
| 20260509160220 | 84 | 235 | 1.0 | 4.0 | 0.00 | 0.00 | 0.00 | 77 | 1007.5 |
| 20260509160215 | 83 | 204 | 1.0 | 4.0 | 0.00 | 0.00 | 0.00 | 78 | 1007.4 |
| 20260509155215 | 83 | 203 | 1.0 | 5.0 | 0.00 | 0.00 | 0.00 | 81 | 1007.3 |
| 20260509154710 | 82 | 202 | 1.0 | 4.0 | 0.00 | 0.00 | 0.00 | 82 | 1007.4 |
| 20260509154211 | 82 | 198 | 1.0 | 4.0 | 0.00 | 0.00 | 0.00 | 83 | 1007.7 |
| 20260509153705 | 81 | 196 | 1.0 | 4.0 | 0.00 | 0.00 | 0.00 | 84 | 1007.6 |
| 20260509153659 | 80 | 192 | 1.0 | 4.0 | 0.00 | 0.00 | 0.00 | 86 | 1007.6 |
| 20260509153311 | 79 | 192 | 3.0 | 11.0 | 0.00 | 0.00 | 0.00 | 88 | 1007.7 |
| 20260509153154 | 80 | 191 | 2.0 | 6.0 | 0.00 | 0.00 | 0.00 | 86 | 1007.7 |
| 20260509152153 | 80 | 193 | 2.0 | 6.0 | 0.00 | 0.00 | 0.00 | 88 | 1007.7 |
| 20260509151141 | 79 | 192 | 4.0 | 11.0 | 0.00 | 0.00 | 0.00 | 88 | 1007.4 |
| 20260509150640 | 78 | 194 | 3.0 | 9.0 | 0.00 | 0.00 | 0.00 | 88 | 1007.3 |
| 20260509150143 | 78 | 202 | 4.0 | 6.0 | 0.00 | 0.00 | 0.00 | 90 | 1007.7 |
| 20260509150139 | 78 | 205 | 3.0 | 6.0 | 0.00 | 0.00 | 0.00 | 89 | 1007.4 |
| 20260509145139 | 78 | 198 | 4.0 | 7.0 | 0.00 | 0.00 | 0.00 | 91 | 1007.3 |
| 20260509144640 | 78 | 200 | 3.0 | 7.0 | 0.00 | 0.00 | 0.00 | 91 | 1007.3 |
| 20260509144140 | 78 | 205 | 1.0 | 6.0 | 0.00 | 0.00 | 0.00 | 91 | 1007.9 |
| 20260509143642 | 77 | 301 | 0.0 | 1.0 | 0.00 | 0.00 | 0.00 | 92 | 1008.2 |
| 20260509143637 | 78 | 301 | 0.0 | 3.0 | 0.00 | 0.00 | 0.00 | 92 | 1008.1 |
| 20260509142635 | 77 | 301 | 0.0 | 2.0 | 0.00 | 0.00 | 0.00 | 92 | 1008.2 |
| 20260509142124 | 77 | 301 | 0.0 | 2.0 | 0.00 | 0.00 | 0.00 | 92 | 1008.1 |
| 20260509141622 | 77 | 301 | 0.0 | 0.0 | 0.00 | 0.00 | 0.00 | 92 | 1008.2 |
| 20260509141116 | 77 | 301 | 0.0 | 0.0 | 0.00 | 0.00 | 0.00 | 92 | 1008.1 |
| 20260509140611 | 77 | 301 | 0.0 | 3.0 | 0.00 | 0.00 | 0.00 | 92 | 1008.2 |
| 20260509140106 | 77 | 301 | 0.0 | 3.0 | 0.00 | 0.00 | 0.00 | 92 | 1008.0 |
| 20260509135722 | 77 | 301 | 0.0 | 1.0 | 0.00 | 0.00 | 0.00 | 93 | 1008.3 |
| 20260509135715 | 77 | 301 | 0.0 | 1.0 | 0.00 | 0.00 | 0.00 | 93 | 1008.1 |
| 20260509134057 | 76 | 301 | 1.0 | 3.0 | 0.00 | 0.00 | 0.00 | 93 | 1008.3 |
| 20260509133556 | 76 | 301 | 1.0 | 3.0 | 0.00 | 0.00 | 0.00 | 93 | 1008.1 |
| 20260509133055 | 76 | 301 | 0.0 | 1.0 | 0.00 | 0.00 | 0.00 | 93 | 1008.1 |
| 20260509132552 | 76 | 301 | 0.0 | 1.0 | 0.00 | 0.00 | 0.00 | 92 | 1007.8 |
| 20260509132051 | 76 | 301 | 1.0 | 2.0 | 0.00 | 0.00 | 0.00 | 92 | 1007.7 |
| 20260509131548 | 76 | 301 | 0.0 | 2.0 | 0.00 | 0.00 | 0.00 | 92 | 1007.8 |
| 20260509131036 | 76 | 301 | 0.0 | 2.0 | 0.00 | 0.00 | 0.00 | 92 | 1007.6 |
| 20260509130533 | 76 | 301 | 1.0 | 3.0 | 0.00 | 0.00 | 0.00 | 92 | 1007.8 |
| 20260509130114 | 76 | 301 | 1.0 | 5.0 | 0.00 | 0.00 | 0.00 | 92 | 1007.7 |
| 20260509130027 | 76 | 301 | 1.0 | 3.0 | 0.00 | 0.00 | 0.00 | 92 | 1007.9 |
| 20260509130009 | 76 | 304 | 3.0 | 13.0 | 0.00 | 0.00 | 0.00 | 92 | 1007.8 |
| 20260509125128 | 76 | 299 | 2.0 | 6.0 | 0.00 | 0.00 | 0.00 | 92 | 1007.8 |
| 20260509125112 | 76 | 301 | 2.0 | 6.0 | 0.00 | 0.00 | 0.00 | 92 | 1007.8 |
| 20260509123503 | 76 | 306 | 4.0 | 13.0 | 0.00 | 0.00 | 0.00 | 93 | 1007.7 |
| 20260509123002 | 76 | 298 | 4.0 | 14.0 | 0.00 | 0.00 | 0.00 | 93 | 1007.6 |
| 20260509122503 | 76 | 311 | 5.0 | 14.0 | 0.00 | 0.00 | 0.00 | 93 | 1007.9 |
| 20260509122006 | 76 | 193 | 6.0 | 18.0 | 0.00 | 0.00 | 0.00 | 94 | 1005.5 |
| 20260509122002 | 76 | 185 | 6.0 | 18.0 | 0.00 | 0.00 | 0.00 | 93 | 1006.5 |
| 20260509121000 | 75 | 184 | 6.0 | 16.0 | 0.00 | 0.00 | 0.00 | 94 | 1004.8 |
| 20260509120504 | 75 | 146 | 6.0 | 17.0 | 0.00 | 0.00 | 0.00 | 95 | 1004.8 |
| 20260509120458 | 75 | 146 | 6.0 | 17.0 | 0.00 | 0.00 | 0.00 | 95 | 1004.5 |
| 20260509120119 | 76 | 143 | 6.0 | 17.0 | 0.00 | 0.00 | 0.00 | 95 | 1005.1 |
| 20260509114959 | 76 | 181 | 6.0 | 17.0 | 0.00 | 0.00 | 0.00 | 95 | 1005.1 |
| 20260509114500 | 76 | 106 | 6.0 | 16.0 | 0.00 | 0.00 | 0.00 | 95 | 1005.2 |
| 20260509114000 | 75 | 125 | 5.0 | 16.0 | 0.00 | 0.00 | 0.00 | 96 | 1006.0 |
| 20260509113507 | 76 | 209 | 3.0 | 8.0 | 0.00 | 0.00 | 0.00 | 96 | 1008.2 |
| 20260509113502 | 76 | 136 | 2.0 | 7.0 | 0.00 | 0.00 | 0.00 | 96 | 1007.0 |
| 20260509112446 | 76 | 210 | 3.0 | 8.0 | 0.00 | 0.00 | 0.00 | 96 | 1008.5 |
| 20260509111943 | 76 | 187 | 3.0 | 7.0 | 0.00 | 0.00 | 0.00 | 96 | 1008.3 |
| 20260509111449 | 76 | 156 | 3.0 | 7.0 | 0.00 | 0.00 | 0.00 | 96 | 1008.3 |
| 20260509111444 | 76 | 159 | 3.0 | 7.0 | 0.00 | 0.00 | 0.00 | 96 | 1008.3 |
| 20260509110437 | 76 | 123 | 2.0 | 5.0 | 0.00 | 0.00 | 0.00 | 96 | 1008.0 |
| 20260509105939 | 76 | 131 | 1.0 | 5.0 | 0.00 | 0.00 | 0.00 | 96 | 1007.9 |
| 20260509105437 | 76 | 139 | 1.0 | 3.0 | 0.00 | 0.00 | 0.00 | 96 | 1008.2 |
| 20260509104936 | 76 | 139 | 1.0 | 3.0 | 0.00 | 0.00 | 0.00 | 96 | 1007.8 |
| 20260509104426 | 76 | 140 | 1.0 | 7.0 | 0.00 | 0.00 | 0.00 | 96 | 1007.4 |
| 20260509103917 | 76 | 140 | 2.0 | 7.0 | 0.00 | 0.00 | 0.00 | 96 | 1006.9 |
| 20260509103413 | 76 | 135 | 1.0 | 5.0 | 0.00 | 0.00 | 0.00 | 96 | 1006.8 |
| 20260509102914 | 76 | 136 | 1.0 | 4.0 | 0.00 | 0.00 | 0.00 | 96 | 1007.2 |
| 20260509102410 | 76 | 136 | 2.0 | 5.0 | 0.00 | 0.00 | 0.00 | 96 | 1007.1 |
| 20260509101910 | 76 | 92 | 1.0 | 5.0 | 0.00 | 0.00 | 0.00 | 96 | 1007.1 |
| 20260509101410 | 76 | 64 | 1.0 | 3.0 | 0.00 | 0.00 | 0.00 | 96 | 1007.3 |
| 20260509100910 | 76 | 64 | 1.0 | 3.0 | 0.00 | 0.00 | 0.00 | 96 | 1007.5 |
| 20260509100408 | 76 | 64 | 1.0 | 3.0 | 0.00 | 0.00 | 0.00 | 96 | 1007.3 |
| 20260509095906 | 76 | 62 | 1.0 | 3.0 | 0.00 | 0.00 | 0.00 | 96 | 1006.9 |
| 20260509095407 | 76 | 62 | 0.0 | 2.0 | 0.00 | 0.00 | 0.00 | 96 | 1006.8 |
| 20260509095401 | 76 | 62 | 1.0 | 2.0 | 0.00 | 0.00 | 0.00 | 95 | 1006.8 |
| 20260509094356 | 76 | 62 | 0.0 | 2.0 | 0.00 | 0.00 | 0.00 | 95 | 1006.8 |
| 20260509094349 | 76 | 62 | 1.0 | 3.0 | 0.00 | 0.00 | 0.00 | 95 | 1006.8 |
| 20260509094005 | 76 | 62 | 1.0 | 3.0 | 0.00 | 0.00 | 0.00 | 95 | 1006.8 |
| 20260509092852 | 76 | 62 | 1.0 | 3.0 | 0.00 | 0.00 | 0.00 | 95 | 1006.7 |
| 20260509092848 | 76 | 62 | 1.0 | 2.0 | 0.00 | 0.00 | 0.00 | 95 | 1007.0 |
| 20260509092508 | 76 | 62 | 0.0 | 2.0 | 0.00 | 0.00 | 0.00 | 95 | 1006.5 |
| 20260509091848 | 76 | 62 | 1.0 | 3.0 | 0.00 | 0.00 | 0.00 | 95 | 1006.7 |
| 20260509090849 | 76 | 62 | 0.0 | 2.0 | 0.00 | 0.00 | 0.00 | 95 | 1006.6 |
| 20260509090349 | 76 | 62 | 1.0 | 2.0 | 0.00 | 0.00 | 0.00 | 95 | 1006.6 |
| 20260509085834 | 76 | 62 | 1.0 | 2.0 | 0.00 | 0.00 | 0.00 | 95 | 1006.7 |
| 20260509085337 | 76 | 62 | 0.0 | 2.0 | 0.00 | 0.00 | 0.00 | 95 | 1006.7 |
| 20260509085321 | 76 | 62 | 0.0 | 3.0 | 0.00 | 0.00 | 0.00 | 95 | 1006.7 |
| 20260509084320 | 76 | 61 | 1.0 | 3.0 | 0.00 | 0.00 | 0.00 | 95 | 1006.6 |
| 20260509083811 | 76 | 62 | 1.0 | 3.0 | 0.00 | 0.00 | 0.00 | 95 | 1006.5 |
| 20260509083312 | 76 | 62 | 1.0 | 3.0 | 0.00 | 0.00 | 0.00 | 95 | 1006.3 |